{"data":{"norad_id":65764,"intl_designator":"2025-217C","name":"KUIPER-00133","alt_names":[],"object_type":"PAYLOAD","status":"ACTIVE","operator":null,"country":"US","launch_date":"2025-09-25","launch_site_code":"AFETR","launch_vehicle":null,"mission":null,"orbit_class":"UNKNOWN","rcs_meters":null,"size_class":null,"mass_kg":null,"dimensions":null,"purposes":[],"wikipedia_slug":null,"has_3d_model":false,"image_url":null,"decayed_at":null,"tle_current":{"epoch":"2026-05-25T01:58:49.317600Z","epoch_age_seconds":82062,"freshness":"FRESH","line1":"1 65764U 25217C   26145.08251525  .00000808  00000+0  13503-3 0  9991","line2":"2 65764  51.9027  75.3379 0000740  77.7647 282.3398 14.79937827 36053","mean_motion":14.79937827,"eccentricity":7.4e-5,"inclination_deg":51.9027,"raan_deg":75.3379,"arg_perigee_deg":77.7647,"mean_anomaly_deg":282.3398,"bstar":0.00013503,"rev_number":3605,"period_min":97.301384810134,"perigee_km":629.00182492657,"apogee_km":630.03895822052,"semimajor_km":7007.6573915735,"source":"CELESTRAK","updated_at":"2026-05-25T13:38:05.658630Z"}}}